This demonstration page uses our WeatherBlox Daily Observations layout. Learn more.

Left ArrowRight Arrow

39.92423, -83.80882

Hourly Observations for March 9, 2018

Temp ( °F °C ) Dew Point ( °F °C ) Humidity (%) Winds ( mph kmh ) Pressure ( in mb ) Visibility ( mi km ) Precip ( " mm )
12:56 am 00:56 Partly Cloudy with Isolated Snow Showers 27 -2.8 19 -7.2 72 72 W 14 22 30.03 1017 9 14 N/A
1:56 am 01:56 Partly Cloudy with Isolated Snow Showers 27 -2.8 20 -6.7 75 75 W 13 20 30.03 1017 9 14 N/A
2:56 am 02:56 Clear 26 -3.3 20 -6.7 78 78 W 12 19 30.02 1017 9 14 N/A
3:56 am 03:56 Clear 26 -3.3 20 -6.7 78 78 W 12 19 30.03 1017 10 16 N/A
4:56 am 04:56 Clear 25 -3.9 20 -6.7 81 81 W 10 17 30.04 1017 10 16 N/A
5:56 am 05:56 Clear 23 -5 19 -7.2 85 85 W 8 13 30.05 1018 10 16 N/A
6:56 am 06:56 Sunny 23 -5 19 -7.2 85 85 WSW 10 17 30.05 1018 10 16 N/A
7:56 am 07:56 Sunny 25 -3.9 20 -6.7 81 81 WSW 8 13 30.05 1018 10 16 N/A
8:56 am 08:56 Sunny 28 -2.2 21 -6.1 75 75 W 13 20 30.05 1018 10 16 N/A
9:56 am 09:56 Sunny 31 -0.6 20 -6.7 64 64 W 16 26 30.05 1018 10 16 N/A
10:56 am 10:56 Sunny 32 undefined 20 -6.7 61 61 WSW 14 22 30.04 1017 10 16 N/A
11:56 am 11:56 Sunny 33 0.6 19 -7.2 56 56 W 17 28 30.03 1017 10 16 N/A
12:56 pm 12:56 Sunny 34 1.1 21 -6.1 59 59 W 15 24 30.02 1017 10 16 N/A
1:56 pm 13:56 Sunny 35 1.7 21 -6.1 57 57 W 16 26 30.00 1016 10 16 N/A
2:56 pm 14:56 Sunny 38 3.3 21 -6.1 51 51 W 18 30 29.98 1015 10 16 N/A
3:56 pm 15:56 Sunny 37 2.8 19 -7.2 48 48 W 13 20 29.98 1015 10 16 N/A
4:56 pm 16:56 Sunny 38 3.3 20 -6.7 48 48 WNW 14 22 30.00 1016 10 16 N/A
5:56 pm 17:56 Sunny 37 2.8 19 -7.2 48 48 WNW 9 15 30.01 1016 10 16 N/A
6:56 pm 18:56 Clear 32 undefined 20 -6.7 61 61 NNW 7 11 30.02 1017 10 16 N/A
7:56 pm 19:56 Clear 30 -1.1 20 -6.7 66 66 NNE 6 9 30.03 1017 10 16 N/A
8:56 pm 20:56 Clear 27 -2.8 21 -6.1 78 78 E 5 7 30.04 1017 10 16 N/A
9:56 pm 21:56 Clear 27 -2.8 21 -6.1 78 78 E 3 6 30.04 1017 10 16 N/A
10:56 pm 22:56 Clear 26 -3.3 20 -6.7 78 78 ESE 3 6 30.06 1018 10 16 N/A
11:56 pm 23:56 Clear 25 -3.9 20 -6.7 81 81 E 3 6 30.05 1018 10 16 N/A

Powered by AerisWeather